Location: Unspecified
(40.9447°N, 78.9903°W)
Time: 07:13:12
(UTC-04:00)

Cosmos 1674 - Pass Details

Date: 01 August 2021
Orbit: 492 x 516 km, 82.5° (Epoch: 16 September)

Event Time Altitude Azimuth Distance (km) Brightness Sun altitude
Rises 04:10:06 0° 344° (NNW) 2,644 6.7 -19.4°
Reaches altitude 10° 04:12:20 10° 337° (NNW) 1,750 5.7 -19.2°
Enters shadow 04:15:51 39° 271° (W) 780 3.2 -18.7°
